COSMOS 1995

Satellite information

Favourite Embed

Satellite Type and Status

PAYLOADIN ORBIT

Key statistics

Satellite COSMOS 1995 at a glance.

Uptime

13415

Days in orbit

Revolutions

≈ 12.6

Per day

Orbit

LEO

Low Earth Orbit

Inclination

82.6

Latest

Satellite identification and parameters

Extended collection of information and parameters for COSMOS 1995.

Object identification

Identified? True

Debris? False

Object name: COSMOS 1995

International designator: 1989-009B

Object number (NORAD): 19786

Object ID (CCSDS): 19786

Country: COMMONWEALTH OF INDEPENDENT STATES (CIS)

Current information (Y/N): Y

RCS size: LARGE

Orbital parameters

Period: 114.084 minutes

Inclination: 82.6241 deg

SMA: 7791.905 km

Apoapsis: 1415.771 km

Periapsis: 1411.769 km

RAAN: 172.5699 deg

Eccentricy: 0.0002568

Argument of periapsis: 285.2236 deg

Mean anomaly: 248.9678 deg

Mean motion: 12.62226447 rev/day

Mean motion (dot): 0.0000004 rev/day2

B* drag term: 0.00016477 1/REarth

Two-line elements (TLE)

Creation date: Nov. 2, 2025, 3:56 p.m.

Reference frame: TEME

Reference center: EARTH

Epoch: Nov. 2, 2025, 10:20 a.m. UTC

TLE line 0: 0 COSMOS 1995

TLE line 1: 1 19786U 89009B 25306.43079440 .00000040 00000-0 16477-3 0 9996

TLE line 2: 2 19786 82.6241 172.5699 0002568 285.2236 248.9678 12.62226447691730

Live tracking on map

Real-time ground track for satellite COSMOS 1995.

In-orbit conjunctions

There are no conjunctions computed for COSMOS 1995, at the moment. Check back to stay up to date, as we update our databases every day.

Go to all conjunctions

Associated space launch

Film-return reconnaissance satellite

COSMOS 1995 was lifted into orbit during the mission ‘Soyuz U | Zenit-8 76’, on board a Soyuz U space rocket.

The launch took place on Feb. 10, 1989, 4:55 p.m. from 41/1.

For more information about the launch, click the button.

Launch to space Soyuz U | Zenit-8 76
Soyuz U | Zenit-8 76

Agency: N/A

Status: Launch Successful

Launch date: Feb. 10, 1989, 4:55 p.m. UTC

Rocket: Soyuz U

Launch pad: 41/1

Location: Plesetsk Cosmodrome, Russian Federation

...

Latest news about this satellite

There are no fresh news available about this satellite. Check back as we update our databases every day.


Newsletter sign-up

Weekly statistics, charts and insights to help you stay on top of the space industry.